User: anonymous   Login
Location: Unspecified
(0.0000°N, 0.0000°E)
Time: 00:58:17
(UTC+00:00)
Language:

STARLINK-31568 - Orbit

View from above orbital plane
View from above orbital plane
View from above satellite
View from above satellite

Ground track
Ground track

The orbit is defined by the following mean orbital elements,

1 59412U          26145.58169282 +.00000000 +00000-0 +11945-3 0 00006
2 59412  43.0023 342.0726 0002262 284.1244  75.9356 15.27584751    06
Epoch (UTC): 25 May 2026 13:57:38
Eccentricity: 0.0002262
inclination: 43.0023°
perigee height: 481 km
apogee height: 485 km
right ascension of ascending node: 342.0726°
argument of perigee: 284.1244°
revolutions per day: 15.27584751
mean anomaly at epoch: 75.9356°

The dashed part of the orbit path shows where the satellite is in the earth's shadow,  

DLR